User: anonymous
Location: Melbourne
(37.8170°S, 144.9670°E)
Time: 16:14:40
(UTC+10:00)
Language:

Cosmos 1656 Rocket - Orbit

View from above orbital plane
View from above orbital plane
View from above satellite
View from above satellite

Ground track
Ground track

The orbit data is extracted from the following two-line orbital elements,

1 15772U 85042D   14208.81583720 -.00000051  00000-0 -12519-5 0  4301
2 15772 071.1091 042.2992 0037289 245.5133 200.3951 14.21023368511516
Epoch (UTC): 27 July 2014 19:34:48
Eccentricity: 0.0037289
inclination: 71.1091°
perigee height: 795 km
apogee height: 849 km
right ascension of ascending node: 42.2992°
argument of perigee: 245.5133°
revolutions per day: 14.21023368
mean anomaly at epoch: 200.3951°
orbit number at epoch: 51151

The dashed part of the orbit path shows where the satellite is in the earth's shadow,  

DLR